This is the latest recevied weather packets stored in our database for station/object SQ8SW-4. If no packets are shown the sender has not sent any weather packets the latest 10 day(s).
| Time | Temp. | Humidity | Pressure | Rain* | Wind** | Luminosity | Snow |
|---|---|---|---|---|---|---|---|
| 1777977492 | 25° C | 30% | 983 hPa | - | - | - | - |
| 1777976589 | 25° C | 30% | 983 hPa | - | - | - | - |
| 1777975687 | 25° C | 31% | 983 hPa | - | - | - | - |
| 1777974785 | 24.44° C | 31% | 983 hPa | - | - | - | - |
| 1777973883 | 23.89° C | 30% | 983 hPa | - | - | - | - |
| 1777972981 | 23.89° C | 32% | 984 hPa | - | - | - | - |
| 1777972078 | 23.33° C | 31% | 984 hPa | - | - | - | - |
| 1777971176 | 23.33° C | 31% | 984 hPa | - | - | - | - |
| 1777970274 | 22.78° C | 32% | 984 hPa | - | - | - | - |
| 1777969372 | 22.78° C | 32% | 984 hPa | - | - | - | - |
| 1777968469 | 22.22° C | 33% | 984 hPa | - | - | - | - |
| 1777967567 | 21.67° C | 34% | 984 hPa | - | - | - | - |
| 1777966665 | 21.11° C | 35% | 984 hPa | - | - | - | - |
| 1777965763 | 20.56° C | 37% | 984 hPa | - | - | - | - |
| 1777964861 | 20° C | 39% | 985 hPa | - | - | - | - |
| 1777963958 | 19.44° C | 41% | 985 hPa | - | - | - | - |
| 1777963056 | 18.89° C | 42% | 985 hPa | - | - | - | - |
| 1777962154 | 17.78° C | 43% | 985 hPa | - | - | - | - |
| 1777961252 | 17.22° C | 45% | 985 hPa | - | - | - | - |
| 1777960349 | 16.67° C | 49% | 985 hPa | - | - | - | - |
| 1777959447 | 15.56° C | 50% | 985 hPa | - | - | - | - |
| 1777958545 | 14.44° C | 52% | 985 hPa | - | - | - | - |
| 1777957643 | 13.89° C | 55% | 985 hPa | - | - | - | - |
| 1777956741 | 12.78° C | 56% | 985 hPa | - | - | - | - |
| 1777955838 | 11.67° C | 59% | 985 hPa | - | - | - | - |
* Rain since midnight (hover to see other rain measurements)
** Current wind speed in m/s (hover to see current wind gust speed)